EN

Hourly Weather Borosenii Noi

Today, 16 April, Friday

Time Temperature Precipitation Wind Pressure Humidity
00:00 +1°C° 0.3 mm 5 mps 746 mmHg 95%
01:00 +1°C° 0.3 mm 5 mps 746 mmHg 95%
02:00 0°C° 0.3 mm 5 mps 746 mmHg 96%
03:00 0°C° 0.4 mm 5 mps 746 mmHg 95%
04:00 0°C° 0.4 mm 5 mps 746 mmHg 95%
05:00 0°C° 0.4 mm 5 mps 746 mmHg 94%
06:00 0°C° 0.2 mm 5 mps 746 mmHg 92%
07:00 +1°C° 0.2 mm 5 mps 746 mmHg 90%
08:00 +1°C° 0.2 mm 5 mps 746 mmHg 88%
09:00 +2°C° 0 mm 5 mps 746 mmHg 81%
10:00 +3°C° 0 mm 5 mps 746 mmHg 74%
11:00 +5°C° 0 mm 5 mps 746 mmHg 67%
12:00 +6°C° 0 mm 5 mps 746 mmHg 64%
13:00 +7°C° 0 mm 4 mps 746 mmHg 61%
14:00 +8°C° 0 mm 4 mps 746 mmHg 57%
15:00 +8°C° 0 mm 4 mps 746 mmHg 59%
16:00 +9°C° 0 mm 3 mps 746 mmHg 60%
17:00 +9°C° 0 mm 3 mps 746 mmHg 61%
18:00 +8°C° 0 mm 3 mps 747 mmHg 67%
19:00 +7°C° 0 mm 2 mps 747 mmHg 74%
20:00 +6°C° 0 mm 2 mps 748 mmHg 81%
21:00 +5°C° 0 mm 2 mps 748 mmHg 83%
22:00 +6°C° 0 mm 1 mps 748 mmHg 86%
23:00 +5°C° 0 mm 1 mps 748 mmHg 88%

Tomorrow, 17 April, Saturday

Time Temperature Precipitation Wind Pressure Humidity
00:00 +4°C° 0 mm 0 mps 748 mmHg 88%
01:00 +4°C° 0 mm 0 mps 748 mmHg 89%
02:00 +4°C° 0 mm 0 mps 748 mmHg 89%
03:00 +3°C° 0 mm 0 mps 748 mmHg 90%
04:00 +3°C° 0 mm 0 mps 748 mmHg 90%
05:00 +4°C° 0 mm 1 mps 748 mmHg 90%
06:00 +5°C° 0 mm 1 mps 749 mmHg 84%
07:00 +6°C° 0 mm 1 mps 749 mmHg 79%
08:00 +8°C° 0 mm 1 mps 749 mmHg 73%
09:00 +9°C° 0 mm 1 mps 749 mmHg 66%
10:00 +11°C° 0 mm 1 mps 749 mmHg 59%
11:00 +12°C° 0 mm 1 mps 749 mmHg 52%
12:00 +13°C° 0 mm 1 mps 749 mmHg 50%
13:00 +13°C° 0 mm 1 mps 749 mmHg 47%
14:00 +14°C° 0 mm 1 mps 748 mmHg 45%
15:00 +14°C° 0 mm 2 mps 748 mmHg 47%
16:00 +13°C° 0 mm 2 mps 748 mmHg 50%
17:00 +12°C° 0 mm 3 mps 748 mmHg 53%
18:00 +11°C° 0 mm 3 mps 748 mmHg 58%
19:00 +10°C° 0 mm 4 mps 748 mmHg 63%
20:00 +8°C° 0 mm 4 mps 749 mmHg 68%
21:00 +7°C° 0 mm 4 mps 748 mmHg 71%
22:00 +7°C° 0 mm 4 mps 748 mmHg 75%
23:00 +6°C° 0 mm 4 mps 748 mmHg 79%

Day after tomorrow, 18 April, Sunday

Time Temperature Precipitation Wind Pressure Humidity
00:00 +6°C° 0 mm 4 mps 748 mmHg 80%
01:00 +5°C° 0 mm 3 mps 748 mmHg 81%
02:00 +5°C° 0 mm 3 mps 748 mmHg 82%
03:00 +5°C° 0 mm 3 mps 748 mmHg 82%
04:00 +5°C° 0 mm 3 mps 748 mmHg 82%
05:00 +5°C° 0 mm 3 mps 748 mmHg 82%
06:00 +5°C° 0 mm 3 mps 748 mmHg 79%
07:00 +7°C° 0 mm 2 mps 748 mmHg 75%
08:00 +8°C° 0 mm 2 mps 748 mmHg 72%
09:00 +9°C° 0 mm 2 mps 748 mmHg 66%
10:00 +12°C° 0 mm 2 mps 748 mmHg 61%
11:00 +13°C° 0 mm 2 mps 747 mmHg 55%
12:00 +14°C° 0 mm 2 mps 747 mmHg 52%
13:00 +14°C° 0 mm 2 mps 747 mmHg 49%
14:00 +15°C° 0 mm 2 mps 747 mmHg 46%
15:00 +15°C° 0 mm 2 mps 746 mmHg 47%
16:00 +14°C° 0 mm 2 mps 746 mmHg 49%
17:00 +14°C° 0 mm 2 mps 746 mmHg 50%
18:00 +13°C° 0 mm 2 mps 746 mmHg 55%
19:00 +12°C° 0 mm 2 mps 746 mmHg 59%
20:00 +10°C° 0 mm 2 mps 747 mmHg 63%
21:00 +10°C° 0.1 mm 2 mps 747 mmHg 68%
22:00 +10°C° 0.1 mm 1 mps 747 mmHg 72%
23:00 +10°C° 0.1 mm 1 mps 747 mmHg 77%

19 April, Monday

Time Temperature Precipitation Wind Pressure Humidity
00:00 +9°C° 0.1 mm 1 mps 746 mmHg 79%
01:00 +9°C° 0.1 mm 1 mps 746 mmHg 81%
02:00 +9°C° 0.1 mm 1 mps 746 mmHg 82%
03:00 +8°C° 0.1 mm 2 mps 746 mmHg 83%
04:00 +8°C° 0.1 mm 2 mps 746 mmHg 83%
05:00 +8°C° 0.1 mm 2 mps 745 mmHg 83%
06:00 +8°C° 0.1 mm 2 mps 745 mmHg 83%
07:00 +8°C° 0.1 mm 2 mps 745 mmHg 83%
08:00 +8°C° 0.1 mm 3 mps 745 mmHg 82%
09:00 +9°C° 0.1 mm 3 mps 745 mmHg 81%
10:00 +9°C° 0.1 mm 3 mps 744 mmHg 80%
11:00 +9°C° 0.1 mm 3 mps 744 mmHg 79%
12:00 +9°C° 0 mm 3 mps 744 mmHg 77%
13:00 +9°C° 0 mm 2 mps 743 mmHg 76%
14:00 +10°C° 0 mm 2 mps 743 mmHg 75%
15:00 +10°C° 0 mm 2 mps 742 mmHg 72%
16:00 +12°C° 0 mm 2 mps 742 mmHg 70%
17:00 +12°C° 0 mm 2 mps 741 mmHg 67%
18:00 +11°C° 0.2 mm 3 mps 741 mmHg 70%
19:00 +10°C° 0.2 mm 4 mps 740 mmHg 73%
20:00 +9°C° 0.2 mm 6 mps 740 mmHg 76%
21:00 +8°C° 0.2 mm 6 mps 740 mmHg 76%
22:00 +7°C° 0.2 mm 6 mps 739 mmHg 76%
23:00 +7°C° 0.2 mm 6 mps 739 mmHg 77%

20 April, Tuesday

Time Temperature Precipitation Wind Pressure Humidity
00:00 +5°C° 0 mm 6 mps 739 mmHg 77%
01:00 +5°C° 0 mm 6 mps 738 mmHg 77%
02:00 +4°C° 0 mm 6 mps 738 mmHg 77%
03:00 +4°C° 0 mm 7 mps 738 mmHg 77%
04:00 +4°C° 0 mm 7 mps 738 mmHg 77%
05:00 +4°C° 0 mm 7 mps 738 mmHg 77%
06:00 +5°C° 0 mm 8 mps 738 mmHg 76%
07:00 +5°C° 0 mm 8 mps 738 mmHg 75%
08:00 +6°C° 0 mm 9 mps 738 mmHg 74%
09:00 +6°C° 0 mm 9 mps 738 mmHg 70%
10:00 +7°C° 0 mm 9 mps 738 mmHg 66%
11:00 +8°C° 0 mm 10 mps 738 mmHg 61%
12:00 +8°C° 0 mm 9 mps 738 mmHg 60%
13:00 +8°C° 0 mm 9 mps 738 mmHg 59%
14:00 +10°C° 0 mm 8 mps 738 mmHg 58%
15:00 +10°C° 0 mm 8 mps 738 mmHg 57%
16:00 +10°C° 0 mm 7 mps 738 mmHg 56%
17:00 +11°C° 0 mm 7 mps 739 mmHg 55%
18:00 +10°C° 0 mm 6 mps 739 mmHg 60%
19:00 +8°C° 0 mm 5 mps 739 mmHg 64%
20:00 +7°C° 0 mm 4 mps 740 mmHg 69%
21:00 +7°C° 0 mm 4 mps 740 mmHg 72%
22:00 +6°C° 0 mm 4 mps 740 mmHg 75%
23:00 +5°C° 0 mm 3 mps 741 mmHg 78%

21 April, Wednesday

Time Temperature Precipitation Wind Pressure Humidity
00:00 +5°C° 0 mm 3 mps 741 mmHg 77%
01:00 +5°C° 0 mm 3 mps 741 mmHg 77%
02:00 +5°C° 0 mm 3 mps 741 mmHg 76%
03:00 +5°C° 0 mm 3 mps 742 mmHg 76%
04:00 +5°C° 0 mm 3 mps 742 mmHg 75%
05:00 +4°C° 0 mm 3 mps 742 mmHg 75%
06:00 +7°C° 0 mm 3 mps 742 mmHg 70%
07:00 +7°C° 0 mm 4 mps 743 mmHg 65%
08:00 +10°C° 0 mm 4 mps 743 mmHg 61%
09:00 +11°C° 0 mm 4 mps 743 mmHg 56%
10:00 +13°C° 0 mm 4 mps 743 mmHg 52%
11:00 +14°C° 0 mm 4 mps 744 mmHg 47%
12:00 +14°C° 0 mm 4 mps 744 mmHg 45%
13:00 +15°C° 0 mm 4 mps 744 mmHg 43%
14:00 +16°C° 0 mm 3 mps 744 mmHg 41%
15:00 +15°C° 0 mm 4 mps 744 mmHg 45%
16:00 +15°C° 0 mm 4 mps 744 mmHg 50%
17:00 +14°C° 0 mm 4 mps 745 mmHg 54%
18:00 +13°C° 0 mm 3 mps 745 mmHg 59%
19:00 +12°C° 0 mm 3 mps 745 mmHg 64%
20:00 +12°C° 0 mm 2 mps 746 mmHg 69%
21:00 +10°C° 0 mm 2 mps 746 mmHg 70%
22:00 +10°C° 0 mm 2 mps 746 mmHg 72%
23:00 +10°C° 0 mm 1 mps 746 mmHg 73%
Show more

We Need Your Consent

Meteoprog and our Service Providers may store and access personal data such as cookies, device identifiers or other similar technologies on your device and process such data to personalise content and ads, as well as provide social media features and to analyse the traffic.

  • Store and/or access information on your device

    Cookies, device identifiers or other information can be stored or accessed on your device for the purposes indicated above.

  • Personalised ads and content, ad and content measurement, audience insights, and products development

    Ads and content can be personalised based on a profile. More data can be added to better personalise ads and content. Ad and content performance can be measured. Insights about the audience who saw the ads and content can be derived. Such data can be used to develop or improve user’s experience, systems and software.

By clicking ‘I Agree’ you will allow the use of indicated cookies, device identifiers, web beacons or other similar technologies. Your settings can be changed in the browser on your device.

For certain purposes, legitimate interests may be relied on, rather than consent. You can read more about this in our Privacy and Cookie Policy.